User: anonymous   Login
Location: Peebles
(55.6412°N, 3.1714°W)
Time: 00:29:50
(UTC+00:00)
Language:

NOSS 3-3 (C) - Orbit

View from above orbital plane
View from above orbital plane
View from above satellite
View from above satellite

Ground track
Ground track

The orbit data is extracted from the following two-line orbital elements,

1 28541U 05004C   21329.15124201 0.00000000  00000-0  00000-0 0    05
2 28541  63.4179   9.4622 0409000 359.2424   0.7576 13.40820354    02
Epoch (UTC): 25 November 2021 03:37:47
Eccentricity: 0.0409000
inclination: 63.4179°
perigee height: 800 km
apogee height: 1412 km
right ascension of ascending node: 9.4622°
argument of perigee: 359.2424°
revolutions per day: 13.40820354
mean anomaly at epoch: 0.7576°
orbit number at epoch: 0

The dashed part of the orbit path shows where the satellite is in the earth's shadow,  

DLR